Wind_Speed
23 21 18 16 15 13 12 11 10 9 10 12 14 16 17 18 19 19 20 20 20 20 20 20 20 21 22 23 23 24 25 26 27 28 29 30 31 31 32 33 33 34 34 34 34 33 32 31 30 29 29 29 29 29 29 28 27 26 25 24 23 22 21 21 21 22 21 21 21
21 19 17 15 14 13 12 11 10 10 11 13 15 17 18 19 19 20 20 20 20 20 20 20 20 21 22 23 24 25 26 27 28 29 30 31 32 32 33 33 34 34 34 34 34 33 32 30 29 27 27 27 27 27 28 28 28 28 28 28 27 27 25 24 23 23 23 23 22
20 18 16 14 14 13 13 12 11 11 12 14 16 18 19 20 20 20 20 20 20 20 20 20 21 22 23 24 25 26 26 27 28 29 30 31 32 33 33 33 34 34 33 33 33 32 30 29 27 26 26 25 24 23 22 22 22 23 23 24 24 25 25 24 24 23 23 23 22
18 16 15 15 14 14 12 11 10 11 13 16 18 19 20 20 20 20 20 20 20 20 20 21 22 22 23 24 25 26 27 28 29 30 31 32 32 33 33 33 33 32 31 31 30 29 28 27 26 26 25 24 23 21 20 19 18 18 18 19 19 19 20 21 21 21 21 22 21
16 15 15 15 14 12 10 9 11 13 16 18 20 21 21 20 20 20 19 19 19 20 21 22 22 23 24 24 25 26 27 28 29 30 31 31 32 32 32 32 31 30 29 28 26 26 25 25 25 24 24 23 22 21 20 19 19 18 18 18 18 18 19 19 19 19 19 20 20
16 15 15 13 11 9 9 11 13 16 19 21 22 22 21 20 20 19 19 19 20 21 22 22 23 23 24 25 25 26 28 29 29 30 31 31 31 31 31 30 29 27 26 25 24 23 23 24 24 23 22 22 21 21 21 20 20 20 20 20 20 19 19 18 19 19 19 18 18
15 13 11 9 9 10 12 15 17 19 22 23 23 22 21 20 19 19 19 20 20 21 22 23 23 24 24 25 26 27 28 28 29 30 30 30 30 30 30 29 28 26 25 24 23 23 23 23 22 20 20 20 20 20 21 21 20 19 19 19 19 18 18 18 18 18 18 17 17
11 9 9 10 11 13 15 17 19 22 24 24 23 21 20 19 18 19 19 20 21 22 22 23 23 24 24 25 26 27 27 28 28 29 29 29 29 29 29 28 27 26 26 25 25 24 24 24 23 21 19 18 18 19 19 19 17 16 16 17 16 16 16 17 17 17 18 18 18
8 9 11 13 14 16 18 20 22 24 24 23 21 20 19 18 19 19 20 21 22 22 22 23 24 24 25 25 26 27 27 28 28 28 28 28 28 27 27 26 25 25 24 24 24 24 24 24 24 23 22 21 21 21 20 19 18 17 17 17 17 16 16 17 18 18 19 19 20
11 12 14 16 17 18 20 23 24 24 23 21 19 18 18 18 19 20 21 21 21 22 22 23 24 24 25 25 26 27 27 28 28 28 27 27 26 25 24 24 23 23 23 22 22 22 22 23 23 24 24 24 24 24 23 23 22 21 21 21 20 20 20 20 20 20 21 21 21
14 16 17 18 20 21 23 24 23 22 20 19 18 18 18 19 20 20 20 21 21 21 22 23 24 24 25 25 26 26 27 27 27 27 26 25 24 23 23 22 22 22 22 22 22 22 23 23 24 24 25 25 25 25 25 24 24 24 24 24 24 24 24 25 25 25 25 25 25
17 18 19 21 22 24 24 22 20 19 18 18 18 18 19 19 20 20 20 20 21 21 22 23 23 24 24 25 25 26 26 26 26 26 25 24 23 23 22 22 22 22 22 22 22 23 23 24 24 24 24 24 24 24 24 25 25 25 25 26 26 26 26 27 27 27 27 28 28
20 21 22 23 24 23 21 19 18 18 18 18 18 19 19 19 19 19 19 20 20 21 22 22 23 23 24 24 25 25 25 25 25 25 24 23 23 22 22 22 22 22 22 22 23 23 23 23 23 23 23 23 23 23 24 23 24 24 24 24 25 25 25 25 25 25 25 26 26
23 23 24 23 22 20 18 18 17 17 18 18 18 18 18 18 18 19 19 19 20 21 21 22 22 23 23 23 24 24 24 24 24 24 23 23 22 22 22 22 22 22 22 23 23 23 23 23 22 22 22 22 21 21 21 21 21 21 21 21 21 21 21 21 21 21 21 22 23
24 24 22 21 19 18 17 17 17 17 17 17 17 17 17 17 17 18 18 19 19 20 20 21 22 22 23 23 23 24 24 24 23 23 22 22 22 22 22 22 22 22 22 22 22 22 21 21 20 19 19 19 19 18 18 18 19 19 19 19 20 20 20 20 20 20 20 20 21
22 21 19 18 17 17 16 16 17 17 16 16 16 16 16 16 17 17 18 18 19 20 20 21 21 22 23 23 23 23 23 23 22 22 22 21 22 22 22 22 22 22 22 21 21 20 19 18 17 17 17 18 18 18 18 18 19 19 20 20 20 20 21 21 20 20 21 21 21
19 17 17 16 16 16 16 16 15 15 14 14 14 14 15 15 16 17 17 18 18 19 20 21 21 22 22 23 23 23 23 22 22 22 22 21 21 21 21 21 21 21 20 19 18 18 17 17 16 17 17 18 19 19 19 19 19 20 20 20 21 21 21 21 21 21 21 22 22
16 15 15 15 15 15 14 14 13 13 13 13 13 14 14 15 16 16 17 18 18 19 19 20 21 22 22 22 23 23 23 22 22 22 22 22 21 21 21 21 19 18 17 16 16 16 16 16 17 18 18 19 19 19 19 19 19 20 20 21 21 21 21 21 21 22 22 22 23
14 14 14 14 13 13 12 12 12 11 11 12 12 13 14 14 15 15 16 17 18 19 19 20 21 22 22 22 22 22 23 22 22 22 22 22 21 21 20 19 18 17 16 16 16 16 17 17 18 18 19 19 20 20 19 19 20 20 20 21 21 21 21 21 22 22 22 22 22
13 13 12 12 11 11 10 10 10 10 10 11 12 12 13 14 14 15 15 16 18 19 20 20 21 21 22 22 22 22 22 23 23 23 22 22 21 20 20 19 18 17 16 16 16 17 17 18 18 18 18 18 19 19 19 19 20 20 20 20 20 21 21 21 21 22 22 22 22
12 11 10 10 9 9 9 9 9 9 9 10 11 11 12 13 14 14 15 16 18 19 19 20 21 21 22 22 22 22 22 23 23 22 22 22 21 20 19 18 17 16 16 16 16 16 16 17 17 17 17 17 18 18 18 18 19 19 20 20 20 20 20 20 20 20 21 21 22
10 9 9 8 8 8 7 7 7 8 8 9 10 10 11 12 13 14 16 17 18 18 19 20 20 21 21 21 21 22 22 22 22 22 21 21 20 18 17 17 16 16 16 16 15 15 15 15 16 16 16 17 17 17 17 18 18 18 19 19 20 20 20 20 20 20 20 21 21
8 8 7 7 6 6 5 6 6 7 7 8 9 10 11 12 14 15 16 17 18 18 19 20 20 20 20 20 20 20 20 20 20 20 19 18 17 16 16 16 16 15 15 15 14 14 14 15 15 16 16 16 17 17 17 17 18 19 19 20 21 21 21 21 20 20 20 21 22
7 7 6 5 4 4 4 4 5 6 7 8 9 10 11 13 14 15 16 17 18 18 18 19 19 19 19 19 19 18 18 18 18 18 18 17 16 15 15 15 15 14 14 15 15 14 15 15 16 16 17 17 18 19 19 19 20 21 21 22 23 23 23 23 23 23 23 24 24
6 5 4 3 2 2 3 4 5 5 6 8 9 11 12 13 15 16 16 17 17 18 18 18 18 18 18 17 17 16 16 16 16 16 16 15 15 15 14 14 14 14 14 15 15 15 16 17 18 19 19 20 21 22 22 21 22 22 23 23 24 24 24 24 24 24 24 24 25
5 3 2 1 1 2 3 3 4 5 6 8 10 11 13 14 15 16 16 17 17 18 18 18 18 18 18 17 16 16 15 14 14 14 14 14 14 13 13 13 14 14 14 14 15 16 17 18 19 21 22 22 23 24 24 25 25 25 26 26 27 27 27 27 27 27 28 28 29
3 2 1 1 1 2 2 3 4 5 7 8 10 12 13 14 15 16 16 17 18 19 19 20 20 19 19 18 17 16 15 14 14 13 13 13 13 13 13 13 13 13 13 14 15 16 17 18 19 20 21 23 24 25 25 26 26 26 26 27 27 28 28 29 29 30 30 30 31
3 2 2 2 2 2 3 3 4 6 7 9 11 12 13 14 15 16 16 17 19 20 21 21 20 20 19 18 17 16 16 15 14 14 13 13 13 13 13 13 13 13 13 13 14 15 15 16 17 18 19 21 22 23 24 24 24 24 24 23 23 23 24 25 26 26 27 28 28
4 3 3 3 3 3 3 4 5 7 8 10 11 12 13 14 15 16 17 18 19 20 20 20 20 19 19 18 17 17 16 16 15 14 13 13 13 13 13 13 13 13 13 13 13 13 13 14 14 15 16 17 18 19 20 21 21 21 21 21 22 22 23 23 24 24 24 24 24
4 4 4 3 3 3 3 5 6 8 9 10 11 12 13 14 15 16 17 18 19 19 19 19 19 18 17 17 17 17 16 15 15 14 13 13 13 13 13 13 13 12 12 12 12 12 12 12 12 13 14 15 16 17 18 18 19 19 21 22 22 22 22 22 22 22 22 22 21
5 5 4 4 3 4 4 6 7 9 10 11 12 12 13 14 15 16 18 18 19 19 20 20 18 17 17 16 16 16 15 15 14 13 13 13 13 13 13 13 13 12 12 12 12 12 12 12 12 13 13 14 15 15 16 16 17 18 20 20 20 20 19 19 19 19 19 19 18
6 5 5 4 4 5 6 7 8 9 10 11 12 12 14 15 16 17 18 19 19 19 19 18 17 17 16 16 15 15 15 14 14 13 13 13 13 13 13 13 13 12 12 12 12 13 13 13 13 14 14 14 15 15 15 16 16 17 17 17 17 16 16 16 16 16 16 16 16
7 6 5 5 5 6 7 8 9 10 10 11 12 13 14 15 17 18 19 19 19 17 16 15 15 15 15 15 15 14 14 13 13 12 12 13 13 13 13 13 12 12 12 12 13 13 13 14 14 15 15 15 15 16 16 16 16 15 15 14 14 14 14 14 14 14 14 14 15
7 6 6 6 7 7 8 9 9 10 10 11 12 13 15 16 17 18 18 18 17 16 14 13 14 14 15 14 14 14 13 13 12 12 12 12 12 13 13 12 12 12 12 12 13 13 13 14 14 14 15 15 15 15 15 15 15 15 14 14 14 13 13 13 14 14 14 15 15
7 7 7 7 8 9 9 10 10 10 11 12 13 14 16 16 16 16 17 17 16 14 12 12 12 14 14 14 13 13 13 12 12 11 11 11 12 12 11 11 11 11 12 12 12 13 13 13 13 14 15 15 15 14 14 14 14 15 15 15 15 15 15 15 15 15 15 15 15
8 8 8 9 9 9 10 10 10 10 11 13 14 15 15 15 15 15 15 16 14 12 11 10 11 12 13 13 12 12 12 12 13 12 11 11 11 11 10 10 10 11 11 11 12 12 12 13 13 14 15 15 14 14 13 13 14 14 14 15 15 15 15 15 15 15 14 14 13
9 9 9 10 10 10 10 10 11 11 12 13 14 15 15 14 14 15 15 15 13 11 10 10 10 11 12 12 11 10 10 11 13 13 12 11 10 10 9 9 9 10 10 10 11 11 11 12 13 14 15 15 15 14 14 13 13 14 14 14 14 14 14 13 13 12 12 12 12
10 10 11 11 11 11 11 11 11 12 13 14 14 14 14 14 14 14 15 14 12 10 10 10 10 11 12 12 11 9 9 10 11 12 11 10 10 9 9 8 8 9 9 9 9 10 10 11 12 13 14 15 14 14 14 13 13 14 14 14 14 13 13 12 12 12 11 11 12
11 11 12 12 12 12 12 12 12 13 14 14 14 14 14 14 14 14 14 14 12 10 9 9 10 11 11 11 10 9 8 8 10 11 11 10 9 8 7 7 8 8 8 8 8 8 9 9 10 11 12 13 13 13 13 13 13 13 13 13 13 13 12 12 11 11 12 12 13
12 13 13 13 13 12 12 13 13 13 14 14 14 14 14 13 13 13 13 12 10 9 9 9 9 10 10 9 9 8 7 7 8 10 10 8 7 6 6 6 7 7 7 7 7 7 7 8 9 10 11 11 11 12 12 12 12 12 13 13 13 13 12 12 11 12 12 13 14
13 13 13 13 13 13 13 13 14 14 14 14 14 14 13 13 13 13 12 10 9 8 8 8 8 8 8 8 8 8 7 6 7 8 8 6 6 6 6 7 8 8 9 8 8 8 8 8 8 9 10 10 10 10 10 11 11 12 12 12 12 12 12 12 12 12 13 14 15
Wind_Direction
188 189 190 193 198 204 212 220 230 242 253 262 268 272 275 277 279 280 280 279 279 280 282 284 287 289 289 290 290 290 290 289 289 288 288 288 288 288 287 287 287 287 286 285 285 284 283 282 281 279 278 276 275 272 269 265 261 259 258 257 256 256 256 256 255 254 253 252 252
188 189 192 196 203 210 219 227 237 248 259 267 272 276 278 279 279 279 278 278 280 282 285 287 288 288 288 289 289 288 288 288 288 288 288 289 289 289 288 288 287 286 285 284 283 282 280 279 278 276 275 274 274 274 273 271 269 266 263 260 258 257 256 256 256 255 254 253 253
188 190 194 201 209 217 225 233 244 257 268 274 278 279 279 278 277 277 277 279 282 285 286 287 287 287 287 287 288 288 288 288 288 289 289 289 289 289 289 288 287 286 285 284 283 281 280 278 276 273 271 270 270 271 273 275 275 274 272 269 265 263 260 258 258 257 257 256 255
188 193 200 208 216 223 232 245 261 274 280 282 281 279 277 276 276 276 278 280 283 285 286 286 286 286 286 287 287 288 289 289 290 290 290 290 290 290 289 288 287 285 284 283 282 280 279 277 274 272 270 269 268 267 267 268 269 270 270 270 268 266 263 261 260 259 259 259 258
191 198 206 214 222 233 249 270 283 286 284 281 278 277 275 275 275 277 279 281 283 284 284 284 285 285 286 287 288 289 290 291 292 292 292 292 291 291 290 288 286 284 282 280 279 277 276 274 273 272 270 269 268 265 264 263 261 261 262 263 262 262 262 262 262 261 261 261 260
195 204 212 222 236 257 276 284 283 281 278 275 274 274 274 274 275 277 279 281 282 282 283 283 284 286 287 289 290 291 292 293 294 294 294 294 293 292 291 288 286 283 280 277 275 273 272 272 272 272 272 271 268 266 263 262 260 260 261 261 262 262 261 260 260 260 260 259 258
203 213 227 246 264 274 274 270 270 270 271 270 270 270 271 273 276 278 279 280 280 280 281 283 285 287 289 290 292 294 295 296 297 297 297 296 295 294 292 289 285 281 277 272 270 267 266 267 267 269 271 271 270 268 266 264 263 264 264 266 267 267 266 265 264 261 258 255 254
215 234 252 263 265 263 261 261 263 264 265 265 266 268 270 273 276 278 278 278 278 280 282 284 287 289 291 293 295 297 299 300 300 300 300 299 297 296 294 291 287 282 277 273 269 266 265 264 263 261 261 263 264 265 265 266 265 264 265 266 267 267 268 269 269 266 263 260 258
231 245 251 253 253 253 255 256 257 259 260 262 265 268 271 274 275 276 276 277 278 281 284 287 290 292 295 297 300 302 303 303 304 303 302 301 300 299 297 294 291 287 282 278 275 273 271 270 268 265 261 258 257 259 261 262 260 258 259 262 262 260 260 262 264 266 267 267 265
232 238 241 243 245 248 250 251 253 256 259 262 265 269 271 273 273 273 275 277 280 284 287 290 293 296 299 302 304 305 306 306 306 306 305 304 303 302 299 296 293 290 286 283 280 277 275 273 272 270 268 265 262 261 261 261 261 260 259 259 259 258 257 256 257 259 262 264 264
228 233 235 238 241 244 246 249 252 255 259 263 266 269 270 271 272 273 276 280 284 288 291 294 297 300 303 305 307 307 307 308 308 308 307 306 305 303 301 298 295 292 289 286 282 279 276 273 272 271 271 270 269 268 267 266 266 265 264 264 263 262 260 259 258 258 259 260 261
226 229 232 236 239 242 245 249 253 257 261 264 266 268 269 270 273 276 280 285 289 292 295 298 301 304 306 307 308 309 309 309 309 308 308 307 305 303 301 298 296 293 290 288 285 282 279 277 276 274 274 273 272 272 271 270 268 268 267 267 267 266 265 265 264 263 262 262 262
223 227 230 234 238 242 246 251 255 258 261 263 265 266 269 272 277 281 286 290 294 297 299 301 304 306 308 309 310 310 309 309 309 308 307 305 304 302 299 297 295 293 291 288 286 284 282 281 279 278 277 276 275 275 273 272 271 270 269 269 269 269 268 268 268 267 267 267 267
221 225 229 234 238 243 248 252 255 257 259 262 264 268 272 277 282 287 291 296 298 300 302 304 306 308 309 310 310 310 310 309 308 307 305 303 301 299 298 296 294 292 290 289 287 285 283 282 280 279 278 278 277 276 275 273 272 270 269 269 270 269 268 268 268 269 269 269 269
220 224 229 234 240 244 248 251 254 256 259 262 267 272 278 283 289 293 297 300 302 303 305 307 309 310 311 312 311 311 310 309 307 305 303 301 299 298 296 294 293 291 289 288 286 284 282 279 277 276 276 275 274 273 272 271 269 268 267 267 267 266 266 265 266 267 267 266 266
220 225 230 236 240 244 247 250 253 256 261 266 273 279 285 290 294 298 301 304 305 307 310 312 313 314 313 313 313 312 311 309 307 304 301 299 297 295 294 292 290 289 287 285 282 280 277 274 273 273 272 271 270 269 269 268 268 267 266 266 265 264 264 264 264 265 264 264 263
221 226 231 236 240 243 247 250 255 260 266 273 281 287 292 296 300 303 306 308 310 313 315 316 316 316 316 315 314 313 311 308 306 303 300 297 295 293 292 290 289 287 286 283 279 277 274 273 272 270 269 269 269 268 268 267 267 266 266 265 265 265 265 264 264 264 263 263 262
222 227 232 236 240 244 249 254 260 267 275 282 289 294 299 303 306 309 310 312 314 317 319 320 319 319 319 318 316 313 311 307 304 301 298 296 294 292 291 290 288 286 284 281 278 277 276 275 273 271 270 269 269 269 268 267 267 267 267 267 267 266 266 266 265 264 263 263 263
222 228 232 237 242 247 253 260 268 276 283 290 297 302 306 309 311 313 314 316 318 321 323 324 323 322 321 319 317 314 311 307 303 300 298 295 293 291 290 289 286 283 280 278 277 276 275 273 271 269 269 269 269 270 270 270 269 268 268 268 268 268 267 266 265 265 264 263 263
224 229 234 240 246 253 261 268 276 284 292 300 306 310 312 313 314 316 318 321 323 325 327 328 327 326 323 321 318 314 311 307 304 301 298 295 293 291 289 287 285 282 279 276 274 273 272 270 269 267 267 268 269 269 269 270 269 269 268 268 268 267 266 265 265 265 265 265 264
225 231 238 245 252 260 267 275 285 294 303 309 312 313 314 314 317 321 325 328 330 331 331 331 330 327 325 321 318 314 311 307 304 301 298 295 293 291 289 286 284 281 279 276 274 273 274 274 274 273 272 270 269 269 268 268 268 267 267 267 267 266 266 265 265 265 265 265 264
227 234 241 249 256 264 273 284 296 305 312 314 314 314 316 319 325 329 333 334 335 335 334 333 331 328 325 322 318 314 311 308 304 301 298 296 294 292 289 287 284 280 278 277 276 275 275 275 275 275 274 272 271 269 269 268 268 268 267 267 267 266 266 266 266 267 268 268 267
228 236 243 250 258 269 283 298 310 315 317 316 316 318 324 330 335 338 339 339 339 337 336 333 331 328 325 322 319 315 312 308 304 301 299 296 293 291 289 286 283 281 279 277 275 273 271 269 267 267 268 269 268 267 265 264 263 263 262 261 261 260 260 260 261 262 264 265 263
226 233 239 248 261 280 301 314 320 320 318 319 323 330 336 341 343 344 343 341 340 338 336 334 332 330 328 325 322 318 314 310 306 303 299 296 292 289 287 285 283 282 281 278 274 269 264 261 259 259 259 260 259 258 257 256 256 256 256 257 257 257 257 256 254 253 254 255 255
219 225 231 244 274 308 324 328 326 325 326 330 336 342 346 348 347 346 344 342 340 339 337 336 335 334 333 332 329 326 322 318 313 309 304 300 294 290 286 284 283 280 277 274 271 265 260 256 254 253 252 252 252 252 253 255 255 256 257 257 258 259 259 258 257 256 256 256 256
205 205 206 237 340 348 344 339 334 335 338 344 349 352 352 350 348 346 344 342 341 341 341 341 342 342 341 341 340 339 335 331 325 319 314 308 303 298 293 288 284 281 278 275 271 267 262 257 254 252 251 251 252 253 254 255 255 256 257 258 258 259 260 260 260 258 257 257 256
175 161 127 63 32 16 2 350 347 349 353 356 357 357 354 351 348 346 345 343 343 344 346 348 349 348 348 349 349 348 344 340 335 331 325 319 314 310 307 302 296 290 285 281 276 271 266 263 259 257 255 255 255 257 258 259 260 260 261 262 262 263 263 264 264 263 262 261 259
138 117 91 70 55 36 14 2 2 3 3 3 2 359 354 351 349 348 347 347 347 349 351 352 352 353 353 354 352 349 347 345 342 339 336 331 325 320 317 315 312 306 299 291 285 279 274 269 266 262 260 259 260 261 263 265 266 267 267 268 268 268 268 269 269 269 269 269 268
115 101 89 81 69 49 28 18 14 12 10 7 3 358 355 352 351 351 351 352 353 354 355 354 355 356 356 354 351 349 348 346 344 342 339 334 328 324 324 324 323 318 311 304 297 289 282 276 271 267 264 263 265 265 266 268 270 271 271 271 271 272 272 273 274 275 276 277 276
107 100 95 87 74 56 40 28 21 17 13 8 4 359 357 355 355 355 356 357 358 357 357 358 359 357 354 351 349 347 345 343 342 340 336 331 327 326 328 329 328 323 317 311 306 299 292 286 279 275 271 269 268 269 271 272 273 274 274 273 274 274 275 276 277 278 278 279 279
107 103 97 89 77 60 44 33 26 21 15 10 5 2 360 359 0 1 1 1 0 360 1 2 359 355 352 350 347 344 341 339 338 337 334 330 330 330 331 331 329 325 319 316 312 307 302 296 292 287 283 280 276 275 275 275 275 274 274 274 275 276 277 278 278 278 278 278 279
108 104 99 91 77 60 47 37 30 24 18 12 7 4 3 4 5 5 5 4 4 4 3 0 355 351 348 346 343 340 339 338 337 335 332 330 329 330 330 329 328 324 319 317 313 309 306 303 300 297 294 290 287 284 282 280 277 275 276 277 278 278 279 279 278 278 278 280 282
110 106 101 89 74 60 49 40 34 26 20 14 10 8 8 9 8 8 7 6 7 6 2 355 349 345 343 341 340 339 338 337 336 332 329 328 327 327 326 327 326 323 319 315 310 307 305 303 302 301 299 296 294 291 289 285 282 281 282 283 283 283 282 282 282 284 287 292 295
111 108 99 86 71 60 51 43 36 29 23 18 14 13 13 14 13 11 9 7 8 7 2 352 344 340 339 339 339 339 339 338 334 330 328 328 326 325 325 327 325 321 315 310 306 303 302 302 301 300 298 297 296 296 293 290 287 287 290 292 291 291 290 290 292 296 301 305 306
111 104 94 81 70 60 53 46 39 32 26 22 20 19 19 18 16 12 9 8 9 8 1 349 340 336 335 337 338 340 340 337 333 330 330 330 328 326 326 326 323 316 310 305 302 300 299 297 296 295 294 294 297 299 298 293 291 290 292 293 294 294 294 295 298 302 306 309 309
107 98 88 78 69 62 55 48 41 35 30 27 26 25 24 21 17 13 10 10 11 8 359 348 339 334 333 335 339 342 341 337 333 331 331 332 330 327 324 320 316 311 306 304 301 298 296 294 293 292 291 292 295 299 299 296 293 291 290 290 292 294 295 295 300 304 308 310 311
102 93 84 77 70 64 57 50 44 38 34 32 31 29 26 22 18 14 12 14 13 7 357 349 341 336 335 338 342 344 343 338 332 330 330 331 330 327 323 319 316 313 309 306 302 299 296 295 293 292 292 292 294 297 299 298 295 293 292 293 296 299 303 306 310 313 315 317 318
97 89 82 76 70 65 59 53 47 42 39 36 34 31 27 24 20 15 14 16 15 8 358 350 344 339 339 343 345 346 345 341 334 329 328 329 329 328 326 327 327 324 318 313 308 304 300 298 297 296 295 295 298 300 301 301 300 299 300 302 305 309 314 318 320 320 321 323 326
93 86 80 75 70 65 60 55 51 47 43 39 36 33 30 26 22 18 16 18 15 10 1 353 347 343 343 345 347 345 343 344 336 329 324 326 331 332 334 340 341 337 331 325 318 313 309 307 305 304 302 302 304 305 306 307 307 308 309 312 315 319 323 325 325 324 325 329 334
89 84 80 75 71 67 62 58 54 50 46 42 39 36 33 29 25 21 20 20 16 9 3 356 352 349 347 348 347 344 342 348 342 331 325 329 338 346 353 1 4 3 359 351 344 336 330 325 321 318 315 313 313 313 313 314 315 315 317 319 322 325 327 329 329 329 331 336 341
88 84 80 76 72 68 64 61 57 53 49 44 41 39 35 31 28 25 24 21 17 11 6 1 357 353 350 352 351 347 346 354 349 339 333 343 358 11 21 26 28 29 28 23 17 10 1 353 344 337 331 328 326 324 323 322 323 322 322 325 328 330 331 332 333 335 338 342 343
Height
1450 1451 1452 1453 1454 1455 1456 1457 1457 1457 1458 1458 1459 1459 1460 1460 1460 1460 1461 1461 1460 1460 1460 1460 1459 1459 1459 1459 1459 1459 1459 1459 1458 1457 1457 1456 1455 1454 1453 1452 1451 1450 1449 1448 1447 1447 1446 1445 1445 1444 1443 1443 1442 1442 1442 1442 1443 1443 1443 1443 1443 1443 1442 1442 1442 1442 1442 1442 1442
1449 1450 1451 1452 1453 1454 1455 1455 1456 1456 1456 1457 1457 1458 1458 1459 1459 1459 1459 1459 1459 1458 1458 1458 1458 1458 1458 1458 1458 1458 1457 1457 1456 1456 1455 1453 1452 1451 1450 1449 1448 1447 1446 1445 1444 1444 1443 1443 1442 1442 1441 1440 1440 1439 1439 1438 1439 1439 1439 1439 1440 1440 1440 1439 1439 1438 1438 1439 1439
1448 1449 1450 1452 1452 1453 1454 1454 1454 1454 1455 1455 1456 1457 1457 1457 1458 1458 1457 1457 1457 1457 1457 1456 1456 1457 1457 1456 1456 1456 1455 1455 1454 1453 1452 1451 1450 1449 1447 1446 1445 1444 1443 1442 1441 1441 1440 1440 1440 1439 1439 1438 1438 1438 1437 1437 1437 1436 1436 1436 1436 1436 1436 1436 1436 1436 1436 1436 1436
1447 1448 1449 1451 1451 1452 1452 1452 1452 1453 1454 1454 1455 1456 1456 1457 1456 1456 1456 1456 1455 1455 1455 1455 1455 1455 1455 1455 1454 1454 1453 1452 1452 1451 1450 1448 1447 1446 1445 1443 1442 1441 1440 1439 1439 1438 1437 1437 1437 1437 1436 1436 1436 1436 1436 1436 1436 1435 1434 1434 1433 1433 1433 1433 1433 1433 1433 1433 1433
1446 1447 1449 1450 1450 1450 1450 1450 1451 1452 1453 1454 1455 1455 1455 1455 1455 1454 1454 1454 1454 1453 1453 1453 1453 1453 1453 1452 1452 1452 1451 1450 1449 1448 1447 1446 1444 1443 1442 1440 1439 1439 1438 1437 1437 1436 1435 1435 1434 1434 1434 1434 1434 1434 1434 1434 1434 1433 1433 1432 1432 1431 1431 1431 1431 1431 1431 1431 1431
1445 1447 1448 1448 1448 1448 1449 1450 1451 1452 1453 1454 1454 1454 1453 1453 1453 1453 1452 1452 1452 1452 1452 1451 1451 1451 1451 1450 1450 1449 1448 1447 1446 1445 1444 1442 1441 1440 1439 1438 1437 1436 1435 1435 1434 1434 1433 1432 1432 1432 1432 1432 1431 1431 1431 1431 1431 1431 1431 1430 1430 1429 1429 1429 1429 1429 1429 1429 1429
1444 1446 1446 1447 1447 1448 1449 1451 1452 1452 1452 1452 1452 1452 1452 1452 1451 1451 1451 1451 1450 1450 1450 1449 1449 1449 1448 1448 1447 1446 1445 1444 1443 1442 1441 1439 1438 1437 1436 1435 1434 1433 1432 1432 1432 1431 1431 1430 1430 1430 1429 1429 1429 1428 1428 1428 1428 1428 1428 1428 1427 1427 1427 1427 1427 1427 1427 1427 1427
1443 1445 1445 1446 1447 1449 1450 1450 1451 1451 1451 1451 1450 1450 1450 1450 1449 1449 1449 1449 1448 1448 1447 1447 1447 1446 1446 1445 1444 1443 1442 1441 1440 1439 1437 1436 1435 1434 1432 1432 1431 1430 1429 1429 1428 1428 1428 1428 1428 1427 1427 1427 1427 1426 1426 1426 1427 1427 1427 1427 1427 1427 1426 1426 1426 1426 1425 1425 1426
1443 1444 1445 1447 1447 1448 1449 1449 1450 1450 1449 1449 1449 1448 1448 1448 1448 1447 1447 1447 1447 1446 1446 1445 1444 1443 1443 1442 1441 1440 1439 1437 1437 1435 1434 1433 1432 1431 1429 1429 1428 1427 1427 1426 1426 1426 1426 1426 1425 1425 1425 1425 1425 1424 1424 1425 1425 1425 1425 1425 1425 1425 1425 1425 1425 1425 1424 1424 1423
1442 1444 1445 1446 1447 1447 1448 1448 1448 1447 1447 1447 1447 1447 1446 1446 1446 1446 1446 1445 1444 1444 1443 1442 1442 1441 1440 1439 1438 1437 1435 1434 1433 1432 1431 1430 1428 1427 1427 1426 1425 1425 1424 1424 1424 1424 1423 1423 1423 1423 1423 1423 1422 1422 1422 1422 1422 1422 1422 1423 1423 1423 1423 1423 1423 1423 1423 1422 1422
1442 1443 1444 1445 1446 1446 1446 1446 1446 1446 1445 1445 1445 1445 1445 1445 1444 1444 1443 1443 1442 1442 1441 1440 1439 1438 1437 1436 1435 1434 1432 1432 1430 1429 1428 1427 1426 1425 1424 1423 1423 1422 1422 1422 1422 1421 1421 1421 1421 1420 1420 1420 1420 1420 1420 1420 1420 1420 1420 1420 1420 1421 1421 1421 1421 1421 1421 1421 1420
1441 1442 1443 1443 1444 1444 1444 1444 1444 1444 1443 1443 1443 1443 1443 1443 1442 1442 1441 1441 1440 1439 1438 1437 1436 1435 1434 1433 1432 1431 1430 1429 1427 1426 1425 1424 1423 1422 1422 1421 1421 1420 1420 1420 1419 1419 1419 1418 1418 1418 1418 1418 1418 1418 1418 1418 1418 1418 1418 1418 1418 1418 1418 1418 1418 1418 1418 1418 1417
1439 1440 1441 1442 1442 1442 1442 1442 1442 1442 1442 1442 1442 1442 1441 1441 1440 1440 1439 1438 1437 1437 1436 1435 1434 1433 1432 1431 1430 1429 1428 1426 1425 1424 1423 1422 1421 1420 1419 1419 1418 1418 1418 1417 1417 1417 1417 1416 1416 1416 1416 1416 1416 1416 1416 1416 1416 1416 1415 1415 1415 1415 1415 1415 1416 1416 1416 1415 1415
1437 1438 1439 1439 1440 1440 1440 1440 1440 1440 1440 1440 1440 1440 1439 1439 1438 1437 1437 1436 1436 1435 1434 1433 1432 1431 1430 1429 1428 1427 1425 1424 1423 1422 1420 1419 1418 1418 1417 1417 1417 1416 1416 1415 1415 1415 1414 1414 1414 1414 1414 1414 1414 1414 1414 1414 1414 1414 1414 1414 1414 1414 1414 1414 1414 1414 1414 1414 1413
1435 1436 1437 1437 1437 1438 1438 1438 1438 1439 1439 1439 1438 1438 1437 1437 1436 1436 1435 1434 1434 1433 1432 1431 1430 1429 1428 1427 1426 1424 1423 1422 1421 1419 1418 1417 1416 1416 1415 1415 1414 1414 1414 1413 1413 1413 1413 1413 1412 1412 1412 1412 1413 1413 1413 1413 1412 1412 1412 1412 1412 1412 1412 1412 1412 1413 1413 1412 1412
1433 1434 1435 1435 1436 1436 1437 1437 1437 1437 1437 1437 1436 1436 1435 1435 1434 1434 1433 1433 1432 1431 1430 1429 1428 1427 1426 1424 1423 1422 1421 1419 1418 1417 1416 1416 1415 1414 1413 1413 1412 1412 1412 1412 1412 1412 1412 1412 1412 1412 1412 1412 1411 1411 1411 1411 1411 1411 1411 1411 1411 1411 1411 1411 1411 1411 1411 1411 1411
1432 1432 1433 1434 1434 1435 1435 1436 1436 1436 1435 1435 1434 1434 1434 1433 1433 1432 1432 1431 1430 1429 1428 1427 1426 1425 1424 1422 1421 1420 1418 1417 1416 1415 1415 1414 1413 1412 1412 1412 1411 1411 1411 1410 1410 1410 1410 1410 1410 1410 1410 1410 1410 1410 1409 1409 1409 1409 1409 1409 1409 1409 1409 1409 1409 1409 1409 1409 1409
1431 1431 1432 1432 1433 1433 1434 1434 1434 1434 1433 1433 1433 1432 1432 1432 1431 1431 1430 1429 1428 1427 1427 1425 1424 1423 1422 1420 1419 1417 1417 1416 1414 1414 1413 1412 1412 1411 1411 1410 1410 1410 1410 1409 1409 1409 1409 1409 1409 1409 1409 1408 1408 1408 1408 1408 1407 1407 1407 1407 1407 1407 1407 1407 1407 1407 1407 1407 1407
1429 1430 1431 1431 1432 1432 1432 1432 1432 1432 1432 1432 1431 1431 1431 1430 1430 1429 1428 1427 1427 1426 1424 1423 1422 1421 1419 1418 1417 1416 1415 1414 1413 1412 1411 1411 1410 1409 1409 1409 1408 1408 1408 1408 1408 1408 1408 1408 1408 1408 1408 1407 1407 1407 1406 1406 1406 1406 1406 1406 1406 1406 1406 1406 1406 1406 1406 1405 1405
1428 1429 1429 1430 1430 1431 1431 1431 1431 1431 1430 1430 1430 1429 1429 1428 1428 1427 1427 1426 1424 1423 1422 1421 1420 1419 1418 1417 1416 1414 1413 1412 1411 1411 1410 1409 1408 1408 1407 1407 1407 1406 1406 1406 1406 1406 1406 1406 1406 1406 1406 1406 1406 1405 1405 1405 1405 1404 1404 1404 1404 1404 1404 1404 1404 1404 1404 1404 1403
1427 1427 1428 1428 1429 1429 1429 1429 1429 1429 1429 1428 1428 1428 1427 1427 1426 1425 1424 1423 1422 1421 1420 1419 1418 1417 1416 1415 1414 1413 1412 1411 1410 1409 1408 1407 1407 1406 1406 1405 1405 1405 1405 1405 1405 1405 1405 1405 1405 1405 1405 1405 1404 1404 1404 1404 1403 1403 1403 1403 1403 1402 1402 1402 1402 1402 1402 1402 1402
1426 1426 1427 1427 1427 1428 1428 1428 1428 1427 1427 1427 1427 1427 1426 1425 1424 1423 1422 1421 1420 1419 1419 1418 1417 1416 1415 1414 1413 1412 1411 1409 1408 1407 1406 1406 1405 1405 1404 1404 1404 1403 1403 1403 1403 1403 1404 1404 1404 1404 1404 1404 1403 1403 1403 1402 1402 1402 1402 1402 1401 1401 1401 1401 1401 1401 1400 1400 1400
1424 1425 1426 1426 1426 1426 1426 1426 1426 1426 1426 1426 1425 1425 1424 1423 1422 1421 1420 1419 1419 1418 1417 1417 1416 1415 1414 1413 1412 1411 1409 1408 1407 1406 1405 1404 1404 1403 1403 1403 1402 1402 1402 1402 1402 1402 1402 1403 1403 1403 1402 1402 1402 1402 1401 1401 1401 1400 1400 1400 1399 1399 1399 1398 1398 1399 1399 1399 1398
1423 1424 1424 1425 1425 1425 1425 1424 1424 1424 1424 1424 1423 1423 1422 1421 1420 1419 1419 1418 1418 1417 1417 1416 1415 1414 1413 1412 1411 1409 1408 1407 1406 1405 1404 1403 1403 1402 1402 1402 1401 1401 1401 1401 1401 1401 1401 1401 1401 1400 1400 1400 1399 1399 1399 1398 1398 1397 1397 1397 1396 1396 1396 1396 1396 1396 1395 1395 1395
1422 1423 1423 1423 1423 1423 1423 1423 1423 1423 1423 1422 1422 1421 1420 1419 1419 1418 1418 1417 1417 1416 1416 1415 1414 1413 1412 1411 1409 1408 1407 1406 1405 1404 1403 1402 1402 1401 1401 1400 1400 1400 1400 1399 1399 1398 1398 1398 1398 1398 1397 1397 1397 1396 1396 1396 1396 1395 1395 1395 1394 1394 1394 1394 1393 1393 1393 1393 1392
1421 1422 1422 1422 1422 1422 1422 1422 1422 1422 1421 1421 1420 1419 1418 1418 1418 1417 1417 1417 1416 1415 1415 1414 1413 1412 1411 1409 1408 1407 1406 1405 1404 1403 1402 1402 1401 1400 1400 1399 1399 1398 1398 1397 1397 1397 1397 1396 1396 1396 1396 1395 1395 1394 1394 1394 1393 1393 1393 1392 1392 1392 1392 1391 1391 1391 1391 1391 1390
1420 1420 1420 1420 1420 1420 1420 1420 1420 1420 1419 1419 1418 1418 1417 1417 1417 1417 1416 1416 1415 1414 1413 1412 1411 1410 1409 1408 1407 1407 1405 1405 1403 1402 1402 1401 1400 1400 1399 1398 1398 1397 1397 1396 1396 1395 1395 1394 1394 1394 1394 1393 1393 1392 1392 1391 1391 1391 1391 1390 1390 1390 1389 1389 1389 1388 1388 1388 1388
1418 1418 1418 1419 1419 1419 1419 1419 1419 1418 1418 1417 1417 1417 1417 1416 1416 1415 1415 1414 1413 1412 1412 1411 1410 1409 1408 1407 1407 1406 1405 1404 1403 1402 1401 1400 1400 1399 1399 1398 1397 1396 1396 1395 1394 1394 1393 1393 1393 1392 1392 1392 1391 1391 1390 1390 1389 1389 1389 1388 1388 1388 1387 1387 1387 1387 1386 1386 1386
1417 1417 1417 1417 1418 1418 1418 1418 1418 1417 1417 1416 1416 1416 1416 1415 1415 1414 1413 1413 1412 1411 1411 1410 1409 1408 1407 1407 1406 1405 1404 1403 1402 1402 1401 1400 1400 1399 1398 1397 1397 1396 1395 1394 1393 1393 1392 1392 1392 1391 1391 1390 1390 1389 1389 1388 1387 1387 1387 1387 1386 1386 1386 1385 1385 1384 1384 1384 1383
1416 1416 1416 1417 1417 1417 1417 1417 1417 1416 1416 1416 1416 1415 1415 1414 1414 1413 1412 1411 1411 1410 1410 1409 1409 1408 1407 1407 1406 1405 1404 1403 1402 1402 1401 1400 1399 1399 1398 1397 1396 1395 1394 1393 1393 1392 1392 1391 1391 1390 1389 1389 1388 1388 1387 1386 1386 1386 1385 1384 1384 1384 1384 1383 1383 1383 1382 1382 1381
1415 1415 1416 1416 1416 1416 1416 1416 1415 1415 1415 1415 1415 1415 1414 1413 1412 1412 1411 1411 1410 1410 1409 1408 1408 1407 1407 1407 1406 1405 1404 1403 1402 1401 1401 1400 1399 1398 1397 1396 1396 1395 1394 1393 1392 1391 1391 1390 1390 1389 1388 1387 1387 1387 1386 1385 1385 1384 1384 1383 1383 1382 1382 1382 1382 1381 1381 1380 1380
1414 1415 1415 1415 1416 1415 1415 1415 1415 1414 1414 1414 1414 1414 1413 1412 1412 1411 1411 1410 1410 1409 1409 1408 1408 1408 1407 1407 1406 1405 1404 1403 1402 1401 1400 1399 1398 1397 1397 1396 1395 1394 1393 1392 1391 1391 1390 1389 1388 1388 1387 1386 1386 1385 1384 1384 1383 1383 1382 1382 1381 1381 1381 1380 1380 1380 1379 1379 1378
1413 1414 1415 1415 1415 1414 1414 1414 1414 1414 1414 1414 1413 1413 1412 1412 1411 1410 1410 1410 1409 1409 1409 1409 1408 1408 1407 1407 1406 1405 1404 1403 1402 1401 1400 1399 1398 1397 1396 1395 1394 1394 1392 1392 1391 1390 1389 1388 1387 1387 1386 1385 1385 1384 1383 1383 1382 1382 1381 1381 1380 1380 1379 1379 1379 1378 1377 1377 1376
1413 1414 1414 1414 1414 1414 1413 1413 1413 1413 1413 1413 1413 1412 1411 1411 1410 1410 1409 1410 1409 1409 1409 1409 1409 1408 1407 1406 1405 1404 1403 1402 1402 1401 1400 1399 1398 1397 1396 1395 1394 1393 1392 1391 1390 1389 1388 1387 1387 1386 1385 1384 1383 1383 1382 1382 1381 1380 1380 1379 1379 1378 1378 1377 1377 1376 1375 1375 1374
1413 1413 1413 1413 1413 1413 1413 1413 1413 1413 1413 1413 1412 1412 1411 1410 1410 1410 1410 1410 1409 1410 1410 1410 1409 1408 1407 1406 1405 1404 1403 1402 1402 1400 1399 1398 1397 1397 1396 1395 1394 1393 1392 1390 1389 1388 1387 1387 1386 1385 1384 1383 1382 1382 1382 1381 1380 1379 1379 1378 1378 1377 1377 1376 1375 1374 1374 1373 1372
1412 1413 1413 1412 1412 1412 1413 1413 1413 1413 1413 1412 1412 1411 1411 1411 1410 1410 1410 1410 1409 1410 1410 1410 1409 1408 1407 1406 1405 1404 1403 1402 1401 1400 1399 1398 1397 1397 1396 1395 1394 1392 1391 1390 1389 1387 1387 1386 1385 1384 1383 1382 1382 1381 1381 1380 1379 1378 1378 1377 1377 1376 1375 1375 1374 1373 1372 1372 1371
1412 1412 1412 1412 1412 1412 1412 1413 1413 1412 1412 1412 1412 1411 1411 1411 1410 1410 1410 1410 1410 1410 1410 1410 1409 1408 1407 1406 1404 1404 1403 1402 1401 1400 1398 1398 1397 1396 1395 1394 1393 1392 1390 1389 1388 1387 1386 1385 1384 1383 1382 1381 1381 1380 1379 1379 1378 1377 1377 1376 1375 1374 1374 1373 1372 1372 1371 1370 1370
1412 1412 1412 1412 1412 1412 1412 1412 1412 1412 1412 1412 1412 1411 1411 1410 1410 1410 1410 1410 1410 1410 1410 1409 1409 1408 1406 1405 1404 1403 1403 1402 1401 1400 1398 1397 1397 1396 1395 1394 1392 1391 1390 1388 1387 1386 1385 1384 1383 1382 1381 1380 1379 1379 1378 1377 1377 1376 1375 1374 1373 1373 1372 1372 1371 1370 1370 1369 1368
1411 1411 1412 1412 1412 1412 1412 1412 1412 1412 1412 1412 1412 1411 1411 1410 1410 1410 1410 1410 1410 1410 1410 1410 1409 1407 1406 1405 1404 1403 1402 1402 1401 1400 1398 1397 1397 1395 1394 1393 1392 1391 1389 1388 1387 1386 1385 1383 1382 1381 1380 1379 1378 1377 1377 1376 1375 1375 1374 1373 1372 1372 1371 1370 1370 1369 1368 1367 1366
1411 1411 1411 1412 1412 1412 1412 1412 1412 1412 1412 1412 1412 1411 1411 1411 1410 1410 1410 1410 1410 1410 1410 1410 1409 1408 1407 1405 1404 1403 1402 1402 1401 1400 1398 1397 1396 1395 1394 1393 1392 1391 1389 1388 1387 1385 1384 1383 1382 1381 1379 1378 1377 1377 1376 1375 1374 1373 1373 1372 1371 1370 1370 1369 1368 1367 1367 1366 1364
1411 1411 1411 1412 1412 1412 1412 1412 1412 1412 1412 1412 1412 1411 1411 1411 1411 1411 1411 1411 1411 1411 1410 1410 1409 1408 1407 1405 1404 1403 1402 1402 1401 1400 1398 1397 1396 1395 1394 1392 1391 1390 1389 1387 1386 1385 1384 1382 1381 1380 1379 1378 1377 1376 1375 1374 1373 1372 1372 1371 1370 1369 1368 1368 1367 1366 1365 1364 1363